EST,Max TemperatureF,Mean TemperatureF,Min TemperatureF,Max Dew PointF,MeanDew PointF,Min DewpointF,Max Humidity, Mean Humidity, Min Humidity, Max Sea Level PressureIn, Mean Sea Level PressureIn, Min Sea Level PressureIn, Max VisibilityMiles, Mean VisibilityMiles, Min VisibilityMiles, Max Wind SpeedMPH, Mean Wind SpeedMPH, Max Gust SpeedMPH,PrecipitationIn, CloudCover, Events, WindDirDegrees
2012-11-1,52,45,38,39,34,24,92,65,38,29.86,29.81,29.77,10,8,2,16,8,22,0.13,7,Rain,250
2012-11-2,50,45,39,29,27,25,64,55,45,30.10,29.95,29.83,10,10,10,18,8,28,0.00,6,,292
2012-11-3,46,43,40,33,30,27,79,66,53,30.21,30.16,30.10,10,10,10,9,3,13,T,7,,340
2012-11-4,48,42,36,33,29,26,82,66,49,30.18,30.16,30.13,10,10,10,14,4,21,0.00,6,,357
2012-11-5,48,38,28,30,28,25,89,67,45,30.21,30.18,30.16,10,10,8,13,3,18,0.00,4,,2
2012-11-6,53,39,24,31,27,22,92,67,41,30.17,30.05,29.95,10,8,5,8,1,10,0.00,0,,347
2012-11-7,50,38,26,32,26,23,92,66,39,30.10,29.98,29.92,10,7,0,12,3,14,0.00,0,Fog,20
2012-11-8,48,36,23,30,26,20,88,67,46,30.27,30.21,30.12,10,8,5,10,2,14,0.00,1,Fog,334
2012-11-9,57,42,26,33,29,23,92,67,41,30.34,30.26,30.22,10,8,4,12,2,17,0.00,0,,189
2012-11-10,72,53,34,37,34,30,85,55,25,30.30,30.26,30.20,10,9,5,14,4,20,0.01,2,Rain,178
2012-11-11,73,55,37,41,34,25,85,51,17,30.39,30.28,30.22,10,10,6,16,5,23,0.00,0,,157
2012-11-12,71,53,35,52,43,29,93,67,41,30.43,30.22,30.01,10,9,2,23,10,36,0.28,5,Rain,219
2012-11-13,43,36,28,29,25,22,92,69,45,30.56,30.50,30.44,10,10,5,10,3,13,0.00,2,,310
2012-11-14,44,34,23,27,24,20,92,71,49,30.58,30.51,30.42,10,10,7,14,3,16,0.00,0,,26
2012-11-15,51,38,24,29,26,22,92,66,39,30.40,30.37,30.32,10,9,6,7,1,9,0.00,0,,9
2012-11-16,53,39,24,30,26,21,92,65,38,30.52,30.44,30.36,10,7,2,8,2,12,0.00,0,,12
2012-11-17,59,42,25,31,26,22,92,58,24,30.61,30.55,30.51,10,8,2,12,3,21,0.00,0,,45
2012-11-18,60,44,27,29,25,20,85,54,22,30.55,30.49,30.44,10,9,6,7,1,9,0.00,0,,60
2012-11-19,55,41,27,33,29,23,92,67,41,30.44,30.36,30.23,10,9,6,6,0,8,0.00,0,,180
2012-11-20,58,44,30,35,32,29,96,66,36,30.23,30.18,30.12,10,8,4,6,0,7,0.00,3,,20
2012-11-21,62,46,30,35,31,27,89,58,27,30.27,30.23,30.17,10,9,6,6,0,8,0.00,1,,280
2012-11-22,63,46,29,33,30,26,92,61,29,30.30,30.21,30.07,10,8,5,10,2,14,0.00,0,,165
2012-11-23,54,43,32,46,32,16,86,62,38,30.15,30.01,29.91,10,10,2,25,11,36,T,6,Rain,234
2012-11-24,34,33,31,22,19,17,69,62,54,30.20,30.17,30.13,10,10,8,17,8,25,0.00,8,,261
2012-11-25,45,37,29,21,19,18,69,51,33,30.16,30.06,29.94,10,10,9,17,5,25,0.00,3,,208
2012-11-26,52,42,31,29,26,22,85,61,36,30.24,30.18,30.08,10,10,6,9,1,13,0.00,4,,275
2012-11-27,44,40,35,32,29,26,82,68,53,30.35,30.29,30.21,10,8,5,9,4,14,0.02,8,Rain,332
2012-11-28,43,35,27,27,23,19,78,59,39,30.45,30.39,30.31,10,9,6,14,4,20,0.00,3,,239
2012-11-29,48,34,20,26,22,17,92,65,37,30.50,30.41,30.33,10,8,2,12,2,14,0.00,0,,155
2012-11-30,58,43,27,33,29,23,92,64,35,30.35,30.30,30.23,10,8,5,16,4,21,0.00,1,,177